(°C)
29°
30°
30°
31°
31°
32°
32°
(°C)
36°
36°
36°
36°
37°
38°
38°
WSW
WSW
WSW
WSW
WSW
WSW
WSW
(km/h)
3-9
4-11
6-14
8-16
9-17
10-18
11-18
(mm)
0
0
0
0
0.2
0.5
0.7
(%)
25
44
64
83
90
82
74

Sonnenhöhe

/ 17°
sun-icon
UV 6
06:48
20:23
Abnehmender Mond (235°)
23:44
11:14

METAR für Tampa (KTPF)

Zeit Bedingungen Temperatur/
Taupunkt
Wind Sichtweite Wetter Wolken Druck Änderung Roh
VFR 29°C / 25°C variable 0kt >10km - Broken Clouds 11000ft - KTPF 281155Z AUTO 00000KT 10SM BKN110 29/25 A3004 RMK AO2
VFR 28°C / 25°C variable 0kt >10km - Broken Clouds 11000ft - KTPF 281135Z AUTO 00000KT 10SM BKN110 28/25 A3004 RMK AO2
VFR 28°C / 25°C variable 0kt >10km - Broken Clouds 11000ft - KTPF 281115Z AUTO 00000KT 10SM BKN110 28/25 A3004 RMK AO2
VFR 28°C / 25°C 270º 3kt >10km - Scattered Clouds 2200ft - KTPF 281055Z AUTO 27003KT 10SM SCT022 BKN110 28/25 A3003 RMK AO2
VFR 28°C / 25°C variable 0kt >10km - Broken Clouds 11000ft - KTPF 281035Z AUTO 00000KT 10SM BKN110 28/25 A3002 RMK AO2
VFR 28°C / 25°C variable 0kt >10km - Broken Clouds 11000ft - KTPF 281015Z AUTO 00000KT 10SM BKN110 28/25 A3002 RMK AO2
VFR 28°C / 24°C variable 0kt >10km - Broken Clouds 11000ft - KTPF 280955Z AUTO 00000KT 10SM BKN110 28/24 A3002 RMK AO2
VFR 28°C / 25°C variable 0kt >10km - Overcast 11000ft - KTPF 280935Z AUTO 00000KT 10SM OVC110 28/25 A3001 RMK AO2
VFR 28°C / 25°C 240º 3kt >10km - Broken Clouds 11000ft - KTPF 280915Z AUTO 24003KT 10SM BKN110 28/25 A3001 RMK AO2
VFR 28°C / 25°C variable 0kt >10km - Broken Clouds 11000ft - KTPF 280855Z AUTO 00000KT 10SM BKN110 28/25 A3001 RMK AO2
VFR 28°C / 25°C variable 0kt >10km - Broken Clouds 11000ft - KTPF 280835Z AUTO 00000KT 10SM BKN110 28/25 A3001 RMK AO2
VFR 28°C / 25°C variable 0kt >10km - Scattered Clouds 11000ft - KTPF 280815Z AUTO 00000KT 10SM SCT110 28/25 A3001 RMK AO2
VFR 28°C / 25°C 220º 3kt >10km - Broken Clouds 11000ft - KTPF 280755Z AUTO 22003KT 10SM BKN110 28/25 A3001 RMK AO2
VFR 28°C / 25°C 220º 3kt >10km - Overcast 11000ft - KTPF 280735Z AUTO 22003KT 10SM OVC110 28/25 A3001 RMK AO2
VFR 28°C / 25°C variable 0kt >10km - Overcast 11000ft - KTPF 280715Z AUTO 00000KT 10SM OVC110 28/25 A3002 RMK AO2
VFR 28°C / 25°C variable 0kt >10km - Overcast 11000ft - KTPF 280655Z AUTO 00000KT 10SM OVC110 28/25 A3002 RMK AO2
VFR 28°C / 25°C variable 0kt >10km - Broken Clouds 11000ft - KTPF 280635Z AUTO 00000KT 10SM BKN110 28/25 A3002 RMK AO2
VFR 28°C / 25°C variable 0kt >10km - Broken Clouds 11000ft - KTPF 280615Z AUTO 00000KT 10SM BKN110 28/25 A3002 RMK AO2
VFR 28°C / 25°C variable 0kt >10km - Broken Clouds 11000ft - KTPF 280555Z AUTO 00000KT 10SM BKN110 28/25 A3002 RMK AO2
VFR 28°C / 25°C variable 0kt >10km - Broken Clouds 11000ft - KTPF 280535Z AUTO 00000KT 10SM BKN110 28/25 A3003 RMK AO2
VFR 28°C / 25°C variable 0kt >10km - Broken Clouds 11000ft - KTPF 280515Z AUTO 00000KT 10SM BKN110 28/25 A3003 RMK AO2
VFR 28°C / 25°C variable 0kt >10km - Broken Clouds 11000ft - KTPF 280455Z AUTO 00000KT 10SM BKN110 28/25 A3003 RMK AO2
VFR 28°C / 25°C variable 0kt >10km - Scattered Clouds 2400ft - KTPF 280435Z AUTO 00000KT 10SM SCT024 OVC110 28/25 A3004 RMK AO2
VFR 28°C / 25°C 260º 3kt >10km - Scattered Clouds 2400ft - KTPF 280415Z AUTO 26003KT 10SM SCT024 OVC110 28/25 A3004 RMK AO2

VFR

29°C / 25°C

[Mehr]
Wind variable 0kt
Sichtweite >10km
Wetter -
Wolken Broken Clouds 11000ft
Druck
Änderung -
Roh KTPF 281155Z AUTO 00000KT 10SM BKN110 29/25 A3004 RMK AO2

VFR

28°C / 25°C

[Mehr]
Wind variable 0kt
Sichtweite >10km
Wetter -
Wolken Broken Clouds 11000ft
Druck
Änderung -
Roh KTPF 281135Z AUTO 00000KT 10SM BKN110 28/25 A3004 RMK AO2

VFR

28°C / 25°C

[Mehr]
Wind variable 0kt
Sichtweite >10km
Wetter -
Wolken Broken Clouds 11000ft
Druck
Änderung -
Roh KTPF 281115Z AUTO 00000KT 10SM BKN110 28/25 A3004 RMK AO2

VFR

28°C / 25°C

[Mehr]
Wind 270º 3kt
Sichtweite >10km
Wetter -
Wolken Scattered Clouds 2200ft
Druck
Änderung -
Roh KTPF 281055Z AUTO 27003KT 10SM SCT022 BKN110 28/25 A3003 RMK AO2

VFR

28°C / 25°C

[Mehr]
Wind variable 0kt
Sichtweite >10km
Wetter -
Wolken Broken Clouds 11000ft
Druck
Änderung -
Roh KTPF 281035Z AUTO 00000KT 10SM BKN110 28/25 A3002 RMK AO2

VFR

28°C / 25°C

[Mehr]
Wind variable 0kt
Sichtweite >10km
Wetter -
Wolken Broken Clouds 11000ft
Druck
Änderung -
Roh KTPF 281015Z AUTO 00000KT 10SM BKN110 28/25 A3002 RMK AO2

VFR

28°C / 24°C

[Mehr]
Wind variable 0kt
Sichtweite >10km
Wetter -
Wolken Broken Clouds 11000ft
Druck
Änderung -
Roh KTPF 280955Z AUTO 00000KT 10SM BKN110 28/24 A3002 RMK AO2

VFR

28°C / 25°C

[Mehr]
Wind variable 0kt
Sichtweite >10km
Wetter -
Wolken Overcast 11000ft
Druck
Änderung -
Roh KTPF 280935Z AUTO 00000KT 10SM OVC110 28/25 A3001 RMK AO2

VFR

28°C / 25°C

[Mehr]
Wind 240º 3kt
Sichtweite >10km
Wetter -
Wolken Broken Clouds 11000ft
Druck
Änderung -
Roh KTPF 280915Z AUTO 24003KT 10SM BKN110 28/25 A3001 RMK AO2

VFR

28°C / 25°C

[Mehr]
Wind variable 0kt
Sichtweite >10km
Wetter -
Wolken Broken Clouds 11000ft
Druck
Änderung -
Roh KTPF 280855Z AUTO 00000KT 10SM BKN110 28/25 A3001 RMK AO2

VFR

28°C / 25°C

[Mehr]
Wind variable 0kt
Sichtweite >10km
Wetter -
Wolken Broken Clouds 11000ft
Druck
Änderung -
Roh KTPF 280835Z AUTO 00000KT 10SM BKN110 28/25 A3001 RMK AO2

VFR

28°C / 25°C

[Mehr]
Wind variable 0kt
Sichtweite >10km
Wetter -
Wolken Scattered Clouds 11000ft
Druck
Änderung -
Roh KTPF 280815Z AUTO 00000KT 10SM SCT110 28/25 A3001 RMK AO2

VFR

28°C / 25°C

[Mehr]
Wind 220º 3kt
Sichtweite >10km
Wetter -
Wolken Broken Clouds 11000ft
Druck
Änderung -
Roh KTPF 280755Z AUTO 22003KT 10SM BKN110 28/25 A3001 RMK AO2

VFR

28°C / 25°C

[Mehr]
Wind 220º 3kt
Sichtweite >10km
Wetter -
Wolken Overcast 11000ft
Druck
Änderung -
Roh KTPF 280735Z AUTO 22003KT 10SM OVC110 28/25 A3001 RMK AO2

VFR

28°C / 25°C

[Mehr]
Wind variable 0kt
Sichtweite >10km
Wetter -
Wolken Overcast 11000ft
Druck
Änderung -
Roh KTPF 280715Z AUTO 00000KT 10SM OVC110 28/25 A3002 RMK AO2

VFR

28°C / 25°C

[Mehr]
Wind variable 0kt
Sichtweite >10km
Wetter -
Wolken Overcast 11000ft
Druck
Änderung -
Roh KTPF 280655Z AUTO 00000KT 10SM OVC110 28/25 A3002 RMK AO2

VFR

28°C / 25°C

[Mehr]
Wind variable 0kt
Sichtweite >10km
Wetter -
Wolken Broken Clouds 11000ft
Druck
Änderung -
Roh KTPF 280635Z AUTO 00000KT 10SM BKN110 28/25 A3002 RMK AO2

VFR

28°C / 25°C

[Mehr]
Wind variable 0kt
Sichtweite >10km
Wetter -
Wolken Broken Clouds 11000ft
Druck
Änderung -
Roh KTPF 280615Z AUTO 00000KT 10SM BKN110 28/25 A3002 RMK AO2

VFR

28°C / 25°C

[Mehr]
Wind variable 0kt
Sichtweite >10km
Wetter -
Wolken Broken Clouds 11000ft
Druck
Änderung -
Roh KTPF 280555Z AUTO 00000KT 10SM BKN110 28/25 A3002 RMK AO2

VFR

28°C / 25°C

[Mehr]
Wind variable 0kt
Sichtweite >10km
Wetter -
Wolken Broken Clouds 11000ft
Druck
Änderung -
Roh KTPF 280535Z AUTO 00000KT 10SM BKN110 28/25 A3003 RMK AO2

VFR

28°C / 25°C

[Mehr]
Wind variable 0kt
Sichtweite >10km
Wetter -
Wolken Broken Clouds 11000ft
Druck
Änderung -
Roh KTPF 280515Z AUTO 00000KT 10SM BKN110 28/25 A3003 RMK AO2

VFR

28°C / 25°C

[Mehr]
Wind variable 0kt
Sichtweite >10km
Wetter -
Wolken Broken Clouds 11000ft
Druck
Änderung -
Roh KTPF 280455Z AUTO 00000KT 10SM BKN110 28/25 A3003 RMK AO2

VFR

28°C / 25°C

[Mehr]
Wind variable 0kt
Sichtweite >10km
Wetter -
Wolken Scattered Clouds 2400ft
Druck
Änderung -
Roh KTPF 280435Z AUTO 00000KT 10SM SCT024 OVC110 28/25 A3004 RMK AO2

VFR

28°C / 25°C

[Mehr]
Wind 260º 3kt
Sichtweite >10km
Wetter -
Wolken Scattered Clouds 2400ft
Druck
Änderung -
Roh KTPF 280415Z AUTO 26003KT 10SM SCT024 OVC110 28/25 A3004 RMK AO2

rainNOW: Regenvorhersage für Tampa und Umgebung (25km Radius)

0.0 mm
0.0 mm
0.0 mm
0.0 mm
0.0 mm
0.0 mm
0.0 mm
0.0 mm
0.1 mm
0.1 mm
0.1 mm
0.2 mm

Aktuelle Satellitenbilder für Tampa, USA

Die Standortmarkierung ist platziert auf Tampa. [Mehr]

Das Echtzeit-Satellitenbild kombiniert sichtbares Licht während des Tages mit Infrarotstrahlung während der Nacht. Nachts ist das Bild nicht dunkel, da Infrarotstrahlung Temperaturunterschiede erkennen kann. Leider sind niedrige Wolken und Nebel nur schwer von den Bodentemperaturen zu unterscheiden und können daher nachts fast unsichtbar sein. Meteosat-Satellitenbilder für Europa werden alle 5 Minuten in Echtzeit aktualisiert. Die Bilder GOES-16 / GOES-17 (Nord- und Südamerika) und Himawari (Asien) werden alle 10 Minuten aktualisiert.

Radar- und Niederschlags-Nowcast für Tampa

Nieselregen
Leicht
Moderat
Stark
Sehr stark
Hagel

Die Ortsmarkierung zeigt auf Tampa. Diese Animation zeigt das Niederschlagsradar der letzten Stunde, sowie eine 1h Vorhersage. Nieselregen und leichter Schneefall können für das Radar unsichtbar sein. Die Niederschlagsintensität ist farbcodiert von Hellblau bis Lila.